Burnsville, North Carolina, United States (28714)
Lat: 35.92N, Lon: 82.3W
Wx Zone: NCZ049
Local Info
Past Weather Observations for Friday, September 19, 2014

NOTE: This archive is for the closest National Weather Service station to Burnsville. Information may differ from the station used for current weather conditions.

Click here for Long-term Archive

Time Weather Temperature Dewpoint Humidity Pressure Winds Precip Visibility
23:54
Overcast
61°F / 16°C 57°F / 14°C 88% 30.27 in
(1025 mb)
Calm - 10SM
22:54
Overcast
61°F / 16°C 59°F / 15°C 94% 30.27 in
(1025 mb)
Calm - 10SM
21:54
Mostly Cloudy
61°F / 16°C 57°F / 14°C 88% 30.27 in
(1025 mb)
Calm - 10SM
20:54
Mostly Cloudy
63°F / 17°C 59°F / 15°C 88% 30.27 in
(1025 mb)
Calm - 10SM
19:54
Clear
63°F / 17°C 59°F / 15°C 88% 30.24 in
(1024 mb)
Calm - 10SM
18:54
Clear
64°F / 18°C 57°F / 14°C 78% 30.24 in
(1024 mb)
S 3.5 mph
(S 6 kph)
- 10SM
17:54
Partly Cloudy
66°F / 19°C 59°F / 15°C 78% 30.21 in
(1023 mb)
ESE 3.5 mph
(ESE 6 kph)
- 10SM
17:29
Overcast
68°F / 20°C 59°F / 15°C 73% 30.21 in
(1023 mb)
Variable 5.8 mph
(Variable 9 kph)
- 10SM
16:54
Overcast
70°F / 21°C 61°F / 16°C 73% 30.21 in
(1023 mb)
SE 5.8 mph
(SE 9 kph)
- 10SM
16:50
Overcast
70°F / 21°C 61°F / 16°C 73% 30.21 in
(1023 mb)
E 3.5 mph
(E 6 kph)
- 10SM
15:54
Mostly Cloudy
70°F / 21°C 61°F / 16°C 73% 30.18 in
(1022 mb)
ESE 9.2 mph
(ESE 15 kph)
- 10SM
14:54
Mostly Cloudy
72°F / 22°C 61°F / 16°C 69% 30.18 in
(1022 mb)
SE 9.2 mph
(SE 15 kph)
- 10SM
13:54
Overcast
73°F / 23°C 61°F / 16°C 65% 30.18 in
(1022 mb)
SSE 8.1 mph
(SSE 13 kph)
- 10SM
12:54
Mostly Cloudy
72°F / 22°C 61°F / 16°C 69% 30.18 in
(1022 mb)
E 5.8 mph
(E 9 kph)
- 10SM
12:32
Mostly Cloudy
70°F / 21°C 61°F / 16°C 73% 30.21 in
(1023 mb)
SE 9.2 mph
(SE 15 kph)
- 10SM
11:54
Mostly Cloudy
70°F / 21°C 61°F / 16°C 73% 30.21 in
(1023 mb)
SSE 12.7 mph
(SSE 20 kph)
- 10SM
10:54
Overcast
66°F / 19°C 61°F / 16°C 83% 30.21 in
(1023 mb)
S 6.9 mph
(S 11 kph)
- 10SM
10:35
Overcast
66°F / 19°C 61°F / 16°C 83% 30.21 in
(1023 mb)
SSE 8.1 mph
(SSE 13 kph)
- 10SM
10:16
Overcast
66°F / 19°C 61°F / 16°C 83% 30.21 in
(1023 mb)
SSE 3.5 mph
(SSE 6 kph)
- 10SM
09:54
Overcast
Hazy
66°F / 19°C 61°F / 16°C 83% 30.21 in
(1023 mb)
SE 3.5 mph
(SE 6 kph)
- 4SM
09:00
Mostly Cloudy
Fog And Mist
64°F / 18°C 61°F / 16°C 88% 30.21 in
(1023 mb)
Calm - 4SM
08:54
Overcast
Fog And Mist
64°F / 18°C 61°F / 16°C 88% 30.21 in
(1023 mb)
Calm - 2SM
08:49
Overcast
Fog And Mist
64°F / 18°C 61°F / 16°C 88% 30.21 in
(1023 mb)
Calm - 2SM
07:54
Overcast
Fog And Mist
61°F / 16°C 61°F / 16°C 100% 30.18 in
(1022 mb)
Calm - 2SM
07:23
Mostly Cloudy
Fog And Mist
61°F / 16°C 59°F / 15°C 94% 30.18 in
(1022 mb)
Calm - 1SM
07:12
Overcast
Fog And Mist
61°F / 16°C 59°F / 15°C 94% 30.18 in
(1022 mb)
Calm - 1SM
07:05
Overcast
Fog And Mist
61°F / 16°C 59°F / 15°C 94% 30.18 in
(1022 mb)
Calm - 5SM
06:54
Overcast
Fog
61°F / 16°C 59°F / 15°C 94% 30.18 in
(1022 mb)
Calm - 1/2SM
06:50
Overcast
Fog
61°F / 16°C 59°F / 15°C 94% 30.18 in
(1022 mb)
Calm - 1/2SM
06:43
Overcast
Fog And Mist
61°F / 16°C 59°F / 15°C 94% 30.18 in
(1022 mb)
Calm - 1SM
05:54
Obscured
Fog
61°F / 16°C 59°F / 15°C 94% 30.15 in
(1021 mb)
Calm - 1/4SM
05:21
Obscured
Fog
61°F / 16°C 59°F / 15°C 94% 30.15 in
(1021 mb)
Calm - 1/4SM
05:10
Fog
61°F / 16°C 59°F / 15°C 94% 30.15 in
(1021 mb)
Calm - 1/4SM
04:43
Obscured
Fog And Mist
61°F / 16°C 59°F / 15°C 94% 30.12 in
(1020 mb)
Calm - 3/4SM
04:40
Mostly Cloudy
Fog And Mist
61°F / 16°C 57°F / 14°C 88% 30.12 in
(1020 mb)
SW 3.5 mph
(SW 6 kph)
- 2SM
04:23
Overcast
Fog And Mist
61°F / 16°C 59°F / 15°C 94% 30.12 in
(1020 mb)
Calm - 3SM
04:18
Overcast
Fog And Mist
61°F / 16°C 59°F / 15°C 94% 30.12 in
(1020 mb)
Calm - 2 1/2SM
04:13
Overcast
Fog And Mist
61°F / 16°C 59°F / 15°C 94% 30.12 in
(1020 mb)
Calm - 1 1/2SM
04:05
Overcast
Fog And Mist
61°F / 16°C 59°F / 15°C 94% 30.12 in
(1020 mb)
Calm - 1SM
04:02
Overcast
Fog And Mist
61°F / 16°C 59°F / 15°C 94% 30.12 in
(1020 mb)
Calm - 3/4SM
03:54
Overcast
Fog And Mist
61°F / 16°C 59°F / 15°C 94% 30.12 in
(1020 mb)
Calm - 1 1/4SM
03:46
Overcast
Fog And Mist
61°F / 16°C 59°F / 15°C 94% 30.12 in
(1020 mb)
Calm - 2 1/2SM
03:42
Overcast
Fog And Mist
61°F / 16°C 59°F / 15°C 94% 30.12 in
(1020 mb)
Calm - 1 1/2SM
03:37
Overcast
Fog And Mist
61°F / 16°C 59°F / 15°C 94% 30.12 in
(1020 mb)
Calm - 3/4SM
03:30
Overcast
Fog And Mist
61°F / 16°C 59°F / 15°C 94% 30.12 in
(1020 mb)
Calm - 1 3/4SM
03:13
Overcast
Fog And Mist
61°F / 16°C 59°F / 15°C 94% 30.12 in
(1020 mb)
Calm - 3SM
03:09
Overcast
Fog And Mist
61°F / 16°C 59°F / 15°C 94% 30.12 in
(1020 mb)
Calm - 1 1/2SM
03:01
Mostly Cloudy
Fog And Mist
61°F / 16°C 59°F / 15°C 94% 30.12 in
(1020 mb)
Calm - 3/4SM
02:54
Mostly Cloudy
Fog
61°F / 16°C 59°F / 15°C 94% 30.12 in
(1020 mb)
Calm - 1/2SM
02:48
Obscured
Fog
61°F / 16°C 59°F / 15°C 94% 30.12 in
(1020 mb)
Calm - 1/2SM
02:42
Partly Cloudy
Fog And Mist
61°F / 16°C 59°F / 15°C 94% 30.12 in
(1020 mb)
Calm - 3/4SM
02:38
Partly Cloudy
Fog And Mist
61°F / 16°C 59°F / 15°C 94% 30.12 in
(1020 mb)
Calm - 1 3/4SM
01:54
Partly Cloudy
Fog And Mist
61°F / 16°C 61°F / 16°C 100% 30.12 in
(1020 mb)
Calm - 6SM
01:25
Partly Cloudy
Fog And Mist
63°F / 17°C 61°F / 16°C 94% 30.12 in
(1020 mb)
Calm - 3SM
01:23
Partly Cloudy
Fog And Mist
63°F / 17°C 61°F / 16°C 94% 30.12 in
(1020 mb)
Calm - 1 1/4SM
01:20
Obscured
Fog And Mist
63°F / 17°C 61°F / 16°C 94% 30.12 in
(1020 mb)
Calm - 3/4SM
01:13
Obscured
Fog And Mist
63°F / 17°C 61°F / 16°C 94% 30.12 in
(1020 mb)
Calm - 1SM
01:11
Mostly Cloudy
Fog And Mist
63°F / 17°C 61°F / 16°C 94% 30.12 in
(1020 mb)
SE 3.5 mph
(SE 6 kph)
- 2SM
01:07
Partly Cloudy
Fog And Mist
63°F / 17°C 61°F / 16°C 94% 30.12 in
(1020 mb)
Calm - 6SM
00:54
Clear
63°F / 17°C 61°F / 16°C 94% 30.12 in
(1020 mb)
Calm - 9SM
00:22
Partly Cloudy
63°F / 17°C 61°F / 16°C 94% 30.09 in
(1019 mb)
Calm - 8SM
Time Weather Temperature Dewpoint Humidity Pressure Winds Precip Visibility


Weather for websites

WeatherForYou.com, LLC is not responsible for any damages or problems caused by this service. Current weather conditions are obtained from the closest station including government and personal stations which may have varying degrees of accuracy. Weather forecasts are derived from the NOAA NDFD. Like all things, this site belongs to Jesus Christ... He just trusts me to maintain it. If you have any questions or comments email webmaster@weatherforyou.com

Copyright © 2014, WeatherForYou.com LLC. All rights reserved.